Location: Kervinic
(48.4279°N, 4.7373°W)
Time: 09:32:43
(UTC+00:00)

STARLINK-1219 - Pass Details

Date: 09 April 2020
Orbit: 548 x 550 km, 53.0° (Epoch: 26 May)

Event Time Altitude Azimuth Distance (km) Brightness Sun altitude
Rises 19:53:48 0° 295° (WNW) 2,720 9.6 -9.0°
Reaches altitude 10° 19:56:03 10° 292° (WNW) 1,824 8.0 -9.4°
Maximum altitude 20:00:07 58° 213° (SSW) 641 4.0 -10.0°
Enters shadow 20:03:41 13° 136° (SE) 1,621 5.4 -10.5°
